Beaver, WV

7:00 PM EST on February 23, 2017 (GMT -0500)
Raleigh County Memorial

Weather History for KBKW - March, 2012

Change the Weather History Date:

Friday, March 16, 2012

  Actual Average Record
Temperature  
Mean Temperature 59 °F 42 °F  
Max Temperature 68 °F 52 °F 82 °F (1927)
Min Temperature 49 °F 32 °F 5 °F (1911)
Degree Days  
Heating Degree Days 6 23  
Month to date heating degree days 268 405  
Since 1 July heating degree days 3661 4406  
Cooling Degree Days 0 0  
Month to date cooling degree days 0 0  
Year to date cooling degree days 0 0  
Growing Degree Days 8 (Base 50)    
Moisture  
Dew Point 50 °F    
Average Humidity 76    
Maximum Humidity 96    
Minimum Humidity 56    
Precipitation  
Precipitation T in 0.12 in 1.22 in (1955)
Month to date precipitation 2.43 1.80  
Year to date precipitation 9.63 7.37  
Snow  
Snow 0.00 in - - ()
Month to date snowfall 6.0  
Since 1 September snowfall 35.9  
Snow Depth 0.00 in    
Sea Level Pressure  
Sea Level Pressure 30.20 in    
Wind  
Wind Speed 4 mph (SW)    
Max Wind Speed 13 mph    
Max Gust Speed 18 mph    
Visibility 9 miles    
Events Rain    
T = Trace of Precipitation, MM = Missing Value Source: NWS Daily Summary

Daily Weather History Graph

Daily Weather History Graph

Search for Another Location

Airport or City:

Trip Planner

Search our weather history database for the weather conditions in past years. The results will help you decide how hot, cold, wet, or windy it might be!

Date:

Astronomy

Mar. 16, 2012 Rise Set
Actual Time 7:33 AM EDT 7:33 PM EDT
Civil Twilight 7:07 AM EDT 7:59 PM EDT
Nautical Twilight 6:36 AM EDT 8:29 PM EDT
Astronomical Twilight 6:05 AM EDT 9:00 PM EDT
Moon 3:44 AM EDT (3/16) 1:57 PM EDT (3/16)
Length of Visible Light 12h 52m
Length of Day
11h 59m
Waning Crescent, 33% of the Moon is Illuminated
Mar 16
Waning Crescent
Mar 22
New
Mar 30
First Quarter
Apr 6
Full
Apr 13
Last Quarter

Hourly Weather History & Observations

Time (EDT) Temp. Dew Point Humidity Pressure Visibility Wind Dir Wind Speed Gust Speed Precip Events Conditions
12:51 AM 54.0 °F 50.0 °F 86% 30.22 in 10.0 mi SSW 8.1 mph - N/A   Partly Cloudy
1:05 AM 53.6 °F 51.8 °F 94% 30.23 in 10.0 mi SSW 8.1 mph - N/A   Mostly Cloudy
1:28 AM 53.6 °F 50.0 °F 88% 30.22 in 10.0 mi South 4.6 mph - N/A   Scattered Clouds
1:51 AM 52.0 °F 48.9 °F 89% 30.19 in 10.0 mi South 4.6 mph - N/A   Clear
2:51 AM 52.0 °F 50.0 °F 93% 30.19 in 10.0 mi South 3.5 mph - N/A   Clear
3:20 AM 50.0 °F 48.2 °F 94% 30.20 in 2.0 mi East 3.5 mph - N/A   Partly Cloudy
3:27 AM 50.0 °F 48.2 °F 94% 30.20 in 1.5 mi East 3.5 mph - N/A   Partly Cloudy
3:31 AM 50.0 °F 48.2 °F 94% 30.20 in 3.0 mi Calm Calm - N/A   Clear
3:51 AM 51.1 °F 48.9 °F 92% 30.19 in 8.0 mi Calm Calm - N/A   Partly Cloudy
4:51 AM 50.0 °F 48.0 °F 93% 30.17 in 10.0 mi SE 3.5 mph - N/A   Scattered Clouds
5:51 AM 51.1 °F 48.9 °F 92% 30.19 in 10.0 mi Calm Calm - N/A   Mostly Cloudy
6:51 AM 53.1 °F 48.9 °F 86% 30.21 in 10.0 mi SSW 5.8 mph - N/A   Mostly Cloudy
7:51 AM 53.1 °F 48.9 °F 86% 30.21 in 10.0 mi SSW 4.6 mph - 0.00 in Rain Light Rain
8:51 AM 54.0 °F 50.0 °F 86% 30.23 in 10.0 mi SSW 3.5 mph - 0.00 in Rain Light Rain
9:51 AM 57.0 °F 51.1 °F 81% 30.22 in 10.0 mi SSW 4.6 mph - 0.00 in   Overcast
10:25 AM 57.2 °F 51.8 °F 82% 30.25 in 10.0 mi SW 3.5 mph - 0.00 in Rain Light Rain
10:51 AM 57.0 °F 51.1 °F 81% 30.23 in 10.0 mi SW 4.6 mph - 0.00 in   Overcast
11:34 AM 59.0 °F 51.8 °F 77% 30.24 in 2.0 mi WSW 3.5 mph - N/A   Haze
11:43 AM 60.8 °F 51.8 °F 72% 30.25 in 10.0 mi West 4.6 mph - N/A   Overcast
11:51 AM 60.1 °F 51.1 °F 72% 30.22 in 10.0 mi West 5.8 mph - N/A   Overcast
12:51 PM 63.0 °F 52.0 °F 67% 30.18 in 10.0 mi SSW 11.5 mph - N/A   Mostly Cloudy
1:51 PM 63.0 °F 51.1 °F 65% 30.17 in 10.0 mi WSW 9.2 mph - N/A   Mostly Cloudy
2:08 PM 64.4 °F 51.8 °F 64% 30.20 in 10.0 mi West 9.2 mph - N/A   Mostly Cloudy
2:15 PM 64.4 °F 51.8 °F 64% 30.20 in 10.0 mi West 11.5 mph 16.1 mph N/A   Overcast
2:51 PM 64.0 °F 51.1 °F 63% 30.16 in 10.0 mi WSW 10.4 mph - N/A   Overcast
3:51 PM 66.9 °F 51.1 °F 57% 30.15 in 10.0 mi West 10.4 mph - N/A   Mostly Cloudy
4:51 PM 66.9 °F 51.1 °F 57% 30.15 in 10.0 mi NW 5.8 mph - N/A   Mostly Cloudy
5:51 PM 66.9 °F 50.0 °F 54% 30.14 in 10.0 mi WNW 6.9 mph - N/A   Mostly Cloudy
6:51 PM 64.9 °F 48.9 °F 56% 30.16 in 10.0 mi NNW 5.8 mph - N/A   Clear
7:51 PM 63.0 °F 50.0 °F 63% 30.17 in 10.0 mi Calm Calm - N/A   Clear
8:51 PM 57.9 °F 48.9 °F 72% 30.20 in 10.0 mi Calm Calm - N/A   Clear
9:51 PM 55.9 °F 48.9 °F 77% 30.21 in 10.0 mi Calm Calm - N/A   Clear
10:51 PM 55.0 °F 48.9 °F 80% 30.21 in 10.0 mi South 4.6 mph - N/A   Clear
11:51 PM 54.0 °F 48.9 °F 83% 30.21 in 10.0 mi Calm Calm - N/A   Clear